Location: *
(40.7190°N, 4.2480°W)
Time: 17:06:36
(UTC+00:00)

Cosmos 1339 Rocket - Pass Details

Date: 18 February 2020
Orbit: 943 x 1005 km, 82.9° (Epoch: 06 April)

Event Time Altitude Azimuth Distance (km) Brightness Sun altitude
Exits shadow 05:07:58 26° 207° (SSW) 1,770 5.6 -23.4°
Maximum altitude 05:11:27 62° 280° (W) 1,056 4.3 -22.7°
Drops below altitude 10° 05:17:31 10° 1° (N) 2,681 6.8 -21.6°
Sets 05:20:04 0° 5° (N) 3,637 7.6 -21.1°
